Location: Csohesd
(46.2500°N, 22.6167°E)
Time: 13:28:37
(UTC+00:00)

Cosmos 1844 Rocket - Pass Details

Date: 21 October 2021
Orbit: 826 x 843 km, 71.0° (Epoch: 06 December)

Event Time Altitude Azimuth Distance (km) Brightness Sun altitude
Rises 18:14:02 0° 331° (NNW) 3,375 6.4 -28.5°
Reaches altitude 10° 18:16:29 10° 329° (NNW) 2,437 5.6 -28.9°
Maximum altitude 18:22:01 66° 248° (WSW) 901 2.9 -29.8°
Enters shadow 18:22:03 66° 245° (WSW) 901 2.8 -29.8°
